Date String (YYYY-MM-DD hh:mm:ss) UTC,Instrument flags,absolute air pressure of the measurement (hPa),sample flow rate (lpm),inlet stack bypass flow (lpm),air temperature of the measurement (°C),ambient temperature measured by the external sensor (°C),aerosol sample conditioner tube jacket temperature (°C),OPC LED temperature (°C),internal box temperature (°C),relative humidity of the measurement (%),span deviation,mass concentration of particles derived from Lorenz-Mie calculation of OPC scattering (μg/m³),mass concentration of particles derived from Lorenz-Mie calculation of OPC scattering (μg/m³),mass concentration of particles derived from Lorenz-Mie calculation of OPC scattering (μg/m³)
DateTimeUTC,F1_M11,P_M11,Q1_M11,Q2_M11,T1_M11,T2_M11,T3_M11,T4_M11,T5_M11,U1_M11,ZSPAN_M11,X0_M11,X2_M11,X1_M11
2023-06-01 11:00:00,SystemResetWarning,0826.4,4.98,000.00,028.9,027.3,000.0,037.3,030.5,27.1,0000.0,0008.89,0004.59,0003.80
2023-06-01 11:01:00,SystemResetWarning,0826.4,5.01,000.00,028.9,027.3,000.0,037.3,030.5,27.1,0000.0,0008.75,0004.54,0003.79
2023-06-01 11:02:00,SystemResetWarning,0826.4,5.01,000.00,028.9,027.3,000.0,037.3,030.5,27.1,0000.0,0008.82,0004.57,0003.80
2023-06-01 11:03:00,SystemResetWarning,0826.4,5.01,000.00,028.9,027.3,000.0,037.3,030.6,27.2,0000.0,0008.84,0004.61,0003.81
2023-06-01 11:04:00,SystemResetWarning,0826.4,5.00,000.00,028.9,027.3,000.0,037.3,030.6,27.1,0000.0,0008.86,0004.61,0003.82
2023-06-01 11:05:00,SystemResetWarning,0826.4,4.99,000.00,028.9,027.3,000.0,037.3,030.6,27.2,0000.0,0009.28,0004.66,0003.83
2023-06-01 11:06:00,SystemResetWarning,0826.4,4.99,000.00,028.9,027.3,000.0,037.3,030.6,27.3,0000.0,0009.42,0004.70,0003.83
2023-06-01 11:07:00,SystemResetWarning,0826.4,4.99,000.00,028.9,027.3,000.0,037.3,030.6,27.2,0000.0,0009.48,0004.73,0003.83
2023-06-01 11:08:00,SystemResetWarning,0826.4,5.00,000.00,028.9,027.3,000.0,037.3,030.6,27.1,0000.0,0009.45,0004.76,0003.84
2023-06-01 11:09:00,SystemResetWarning,0826.4,5.00,000.00,028.9,027.3,000.0,037.3,030.6,27.1,0000.0,0010.08,0004.80,0003.85
2023-06-01 11:10:00,SystemResetWarning,0826.4,5.00,000.00,028.9,027.3,000.0,037.3,030.6,27.2,0000.0,0010.26,0004.86,0003.88
2023-06-01 11:11:00,SystemResetWarning,0826.3,5.00,000.00,028.9,027.3,000.0,037.3,030.6,27.2,0000.0,0010.81,0004.92,0003.91
2023-06-01 11:12:00,SystemResetWarning,0826.4,5.00,000.00,028.9,027.3,000.0,037.3,030.6,27.1,0000.0,0011.28,0004.96,0003.92
2023-06-01 11:13:00,SystemResetWarning,0826.3,5.00,000.00,028.9,027.3,000.0,037.3,030.6,27.2,0000.0,0011.36,0004.98,0003.91
2023-06-01 11:14:00,SystemResetWarning,0826.4,5.00,000.00,028.9,027.3,000.0,037.3,030.6,27.2,0000.0,0011.20,0004.93,0003.90
2023-06-01 11:15:00,SystemResetWarning,0826.4,5.00,000.00,028.9,027.3,000.0,037.3,030.6,27.1,0000.0,0010.91,0004.93,0003.91
2023-06-01 11:16:00,SystemResetWarning,0826.4,5.00,000.00,028.9,027.3,000.0,037.3,030.6,27.0,0000.0,0010.48,0004.93,0003.91
2023-06-01 11:17:00,SystemResetWarning,0826.3,5.00,000.00,029.0,027.3,000.0,037.3,030.6,27.0,0000.0,0010.61,0004.96,0003.93
2023-06-01 11:18:00,SystemResetWarning,0826.4,5.00,000.00,028.9,027.3,000.0,037.3,030.6,27.0,0000.0,0010.73,0004.98,0003.94
2023-06-01 11:19:00,SystemResetWarning,0826.4,5.00,000.00,029.0,027.3,000.0,037.3,030.6,27.0,0000.0,0010.91,0004.98,0003.95
2023-06-01 11:20:00,SystemResetWarning,0826.4,5.00,000.00,029.0,027.4,000.0,037.3,030.6,27.1,0000.0,0010.61,0004.96,0003.97
2023-06-01 11:21:00,SystemResetWarning,0826.5,5.00,000.00,029.0,027.4,000.0,037.3,030.6,27.0,0000.0,0010.54,0004.97,0003.97
2023-06-01 11:22:00,SystemResetWarning,0826.5,4.99,000.00,029.0,027.4,000.0,037.3,030.6,27.0,0000.6,0010.31,0004.95,0003.97
2023-06-01 11:23:00,SystemResetWarning,0826.5,5.00,000.00,029.0,027.4,000.0,037.3,030.6,27.0,0000.6,0010.13,0005.01,0003.98
2023-06-01 11:24:00,SystemResetWarning,0826.6,5.00,000.00,029.0,027.4,000.0,037.3,030.6,26.9,0001.1,0010.16,0005.04,0003.99
2023-06-01 11:25:00,SystemResetWarning,0826.6,5.00,000.00,029.0,027.4,000.0,037.3,030.6,26.9,0001.2,0010.11,0005.05,0004.01
2023-06-01 11:26:00,SystemResetWarning,0826.6,5.01,000.00,029.0,027.4,000.0,037.3,030.6,26.9,0001.4,0010.09,0005.07,0004.01
2023-06-01 11:27:00,SystemResetWarning,0826.6,5.01,000.00,029.0,027.3,000.0,037.3,030.6,26.9,0001.7,0010.16,0005.08,0004.01
2023-06-01 11:28:00,SystemResetWarning,0826.6,5.01,000.00,029.0,027.3,000.0,037.3,030.6,26.9,0002.1,0010.11,0005.09,0004.02
2023-06-01 11:29:00,SystemResetWarning,0826.6,5.00,000.00,029.0,027.3,000.0,037.3,030.6,26.9,0001.2,0010.00,0005.09,0004.03
2023-06-01 11:30:00,SystemResetWarning,0826.6,4.99,000.00,029.0,027.3,000.0,037.3,030.6,26.8,0001.1,0010.08,0005.08,0004.03
2023-06-01 11:31:00,SystemResetWarning,0826.6,4.99,000.00,029.0,027.3,000.0,037.3,030.6,26.8,0001.2,0010.55,0005.06,0004.01
2023-06-01 11:32:00,SystemResetWarning,0826.5,5.00,000.00,029.0,027.3,000.0,037.3,030.6,26.8,0001.1,0010.39,0004.98,0003.99
2023-06-01 11:33:00,SystemResetWarning,0826.6,5.01,000.00,029.0,027.3,000.0,037.4,030.6,26.7,0000.7,0010.36,0004.99,0003.98
2023-06-01 11:34:00,SystemResetWarning,0826.6,5.01,000.00,029.0,027.4,000.0,037.4,030.6,26.7,0000.6,0010.24,0004.95,0003.98
2023-06-01 11:35:00,SystemResetWarning,0826.6,5.00,000.00,029.0,027.4,000.0,037.3,030.6,26.7,0001.0,0010.13,0004.93,0003.97
2023-06-01 11:36:00,SystemResetWarning,0826.6,5.00,000.00,029.0,027.4,000.0,037.4,030.6,26.7,0001.0,0010.67,0004.98,0003.96
2023-06-01 11:37:00,SystemResetWarning,0826.6,4.98,000.00,029.0,027.4,000.0,037.4,030.6,26.7,0000.0,0011.15,0004.98,0003.96
2023-06-01 11:38:00,SystemResetWarning,0826.6,5.01,000.00,029.0,027.4,000.0,037.4,030.6,26.7,0000.0,0011.59,0005.00,0003.95
2023-06-01 11:39:00,SystemResetWarning,0826.6,5.01,000.00,029.0,027.4,000.0,037.4,030.6,26.7,0000.0,0011.63,0005.02,0003.95
2023-06-01 11:40:00,SystemResetWarning,0826.6,5.00,000.00,029.0,027.4,000.0,037.4,030.6,26.7,0000.0,0011.62,0005.00,0003.95
2023-06-01 11:41:00,SystemResetWarning,0826.6,4.99,000.00,029.0,027.4,000.0,037.4,030.6,26.7,0002.7,0011.60,0005.02,0003.96
2023-06-01 11:42:00,SystemResetWarning,0826.7,5.00,000.00,029.0,027.4,000.0,037.4,030.6,26.7,0002.6,0011.46,0005.04,0003.97
2023-06-01 11:43:00,SystemResetWarning,0826.8,4.99,000.00,029.0,027.4,000.0,037.4,030.6,26.9,0002.5,0011.42,0005.09,0003.98
2023-06-01 11:44:00,SystemResetWarning,0826.7,5.00,000.00,029.0,027.4,000.0,037.4,030.6,27.0,0002.6,0011.65,0005.16,0003.98
2023-06-01 11:45:00,SystemResetWarning,0826.8,5.00,000.00,029.0,027.4,000.0,037.4,030.6,27.1,0002.5,0011.56,0005.15,0004.00
2023-06-01 11:46:00,SystemResetWarning,0826.8,5.00,000.00,029.0,027.3,000.0,037.4,030.6,27.1,0002.7,0011.50,0005.16,0004.01
2023-06-01 11:47:00,SystemResetWarning,0826.7,5.00,000.00,029.0,027.3,000.0,037.4,030.6,27.1,0002.7,0011.27,0005.11,0004.03
2023-06-01 11:48:00,SystemResetWarning,0826.8,5.00,000.00,028.9,027.3,000.0,037.4,030.6,27.1,0002.4,0010.44,0005.09,0004.04
2023-06-01 11:49:00,SystemResetWarning,0826.8,5.00,000.00,028.9,027.2,000.0,037.3,030.5,27.2,0002.3,0010.39,0005.06,0004.05
2023-06-01 11:50:00,SystemResetWarning,0826.7,5.00,000.00,028.9,027.2,000.0,037.3,030.5,27.2,0002.4,0010.65,0005.07,0004.07
2023-06-01 11:51:00,SystemResetWarning,0826.7,5.00,000.00,028.9,027.2,000.0,037.3,030.5,27.1,0002.7,0010.78,0005.07,0004.08
2023-06-01 11:52:00,SystemResetWarning,0826.8,5.00,000.00,028.9,027.2,000.0,037.3,030.5,27.1,0002.4,0011.39,0005.06,0004.07
2023-06-01 11:53:00,SystemResetWarning,0826.8,5.01,000.00,028.9,027.2,000.0,037.3,030.5,27.1,0001.7,0011.77,0005.06,0004.07
2023-06-01 11:54:00,SystemResetWarning,0826.8,5.00,000.00,028.9,027.2,000.0,037.3,030.5,27.1,0003.1,0012.81,0005.08,0004.08
2023-06-01 11:55:00,SystemResetWarning,0826.8,5.00,000.00,028.9,027.2,000.0,037.3,030.5,27.0,0003.5,0013.51,0005.04,0004.10
2023-06-01 11:56:00,SystemResetWarning,0826.8,5.00,000.00,028.9,027.2,000.0,037.3,030.5,27.0,0002.5,0013.19,0004.96,0004.10
2023-06-01 11:57:00,SystemResetWarning,0826.8,5.00,000.00,028.9,027.2,000.0,037.3,030.5,26.9,0001.7,0013.23,0004.98,0004.10
2023-06-01 11:58:00,SystemResetWarning,0826.8,5.00,000.00,028.9,027.2,000.0,037.3,030.5,26.9,0000.0,0013.26,0004.98,0004.10
2023-06-01 11:59:00,SystemResetWarning,0826.8,5.01,000.00,028.9,027.2,000.0,037.3,030.5,26.9,0000.0,0013.48,0005.01,0004.10
